Flag for Saudi Arabia Weather past 2 weeks in Medina, Saudi Arabia

Now
93 °F

Clear.


Feels Like: 89 °F
Forecast: 73 / 97 °F
Wind: 6 mph from Northwest

Location: Madinah

Current Time: Oct 22, 2014 at 6:42:01 PM

Latest Report: Oct 22, 2014 at 6:00 PM


Visibility: 10 mi

Pressure: 30.01 "Hg

Humidity: 12%

Dew point: 34 °F

Location of MedinaLocation

Historic Weather in Medina — Graph

°F

Medina temperature yesterday

Maximum temperature yesterday: 93 °F (at 4:00 PM)
Minimum temperature yesterday: 73 °F (at 5:00 AM)
Average temperature yesterday: 84 °F

Past Weeks' High & Low Weather Summary

 TemperatureHumidityPressure
High102 °F (Oct 7, 5:00 PM)41% (Oct 21, 6:00 AM)30.12 "Hg (Oct 21, 6:00 AM)
Low73 °F (Oct 17, 6:00 AM)4% (Oct 7, 5:00 PM)29.83 "Hg (Oct 19, 4:00 PM)
Average89 °F16%29.99 "Hg
* Reported Oct 7 5:00 PM — Oct 22 5:00 PM, Medina, Weather by CustomWeather, © 2014

Note: Actual official high and low records may vary slightly from our data, if they occured in-between our weather recording intervals... More about our weather records

Advertising

Medina weather history for previous 24 hours

 ConditionsComfort  
Time TempWeatherWind HumidityBarometerVisibility
5:00 PM
Oct 22
95 °FSunny.6 mph11%30.01 "Hg10 mi
4:00 PM97 °FSunny.9 mph12%30.01 "Hg6 mi
3:00 PM97 °FSunny.5 mph11%30.01 "Hg6 mi
2:00 PM95 °FSunny.5 mph12%30.04 "Hg6 mi
1:00 PM91 °FSunny.5 mph10%30.04 "Hg6 mi
12:00 PM91 °FSunny.7 mph13%30.09 "Hg5 mi
11:00 AM86 °FSunny.8 mph15%30.12 "Hg5 mi
10:00 AM84 °FSunny.12 mph16%30.12 "Hg5 mi
9:00 AM81 °FSunny.13 mph17%30.12 "Hg5 mi
8:00 AM77 °FSunny.7 mph19%30.12 "Hg10 mi
7:00 AM73 °FSunny.3 mph17%30.09 "Hg10 mi
6:00 AM75 °FClear.7 mph14%30.09 "Hg10 mi
5:00 AM75 °FClear.7 mph15%30.07 "Hg10 mi
4:00 AM73 °FClear.7 mph19%30.04 "Hg10 mi
3:00 AM77 °FClear.7 mph15%30.04 "Hg10 mi
2:00 AM77 °FClear.9 mph15%30.07 "Hg10 mi
1:00 AM82 °FClear.7 mph17%30.07 "Hg10 mi
12:00 AM84 °FClear.9 mph16%30.07 "Hg10 mi
11:00 PM
Oct 21
86 °FClear.16 mph15%30.07 "Hg10 mi
10:00 PM88 °FClear.15 mph13%30.04 "Hg10 mi
9:00 PM88 °FClear.13 mph13%30.04 "Hg10 mi
8:00 PM90 °FClear.15 mph10%30.01 "Hg10 mi
7:00 PM91 °FClear.12 mph9%29.98 "Hg10 mi
6:00 PM91 °FClear.8 mph14%29.98 "Hg6 mi
Weather by CustomWeather, © 2014

See weather overviewHow to use our weather pages